Simultaneous Nadir Overpasses (SNOs) Predictions

Prediction of SNOs between TERRA and METOP-C Satellite Orbit:

Table of predicted SNOs for the next 14.0 days since TLE Epoch: 5/29/2021
Index Date (TERRA) Time (TERRA) Lat,Lon (TERRA) SZA (TERRA ) Date (METOP-C) Time (METOP-C) Lat,Lon (METOP-C) SZA (METOP-C ) Distance(km) Time Diff (sec)
1 05/29/2021 08:23:36 81.30, 100.15 62.48 05/29/2021 08:23:30 81.30, 100.33 62.50 2.96 6
2 05/29/2021 09:13:02 -81.31, -91.94 117.49 05/29/2021 09:14:10 -81.31, -91.91 117.45 0.93 68
3 06/01/2021 03:08:22 -81.29, -1.28 117.96 06/01/2021 03:07:13 -81.29, -1.24 117.99 0.74 69
4 06/01/2021 03:57:48 81.29, 166.44 62.05 06/01/2021 03:57:52 81.30, 166.59 62.07 2.62 4
5 06/03/2021 22:42:33 -81.30, 65.38 118.30 06/03/2021 22:41:34 -81.29, 65.46 118.32 1.51 59
6 06/03/2021 23:31:59 81.30,-126.93 61.71 06/03/2021 23:32:13 81.30,-126.78 61.74 2.61 14
7 06/06/2021 18:16:44 -81.29, 131.62 118.64 06/06/2021 18:15:55 -81.29, 131.75 118.65 2.36 49
8 06/06/2021 19:06:10 81.29, -60.73 61.36 06/06/2021 19:06:34 81.30, -60.56 61.40 3.10 24
9 06/09/2021 13:50:55 -81.29,-161.81 118.89 06/09/2021 13:50:17 -81.29,-161.98 118.93 2.95 38



Historial Predications of SNOs between TERRA and METOP-C
